Theta_e
316 319 321 324 328 332 329 329 326 325 324 314 314 319 318 320 320 321 321 321 321 321 319 319 320 319 320 319 319 318 319 318 320 317 318 331 325 321 323 319 321 321 321 331 342 341 336 335 337 340 342 343 343 343 342 342 342 341 341 342 342 341 342 340 341 339 339 338 337 337 336 336 335 335 335 336 336 336 336 335 335 333 330 326 322 326 330 328 329 336 338 338 338 341 342 339 340
320 323 325 327 329 331 329 328 324 319 317 312 314 317 317 321 320 320 320 319 320 320 319 319 319 319 320 319 319 319 320 320 320 318 321 328 324 324 326 320 319 321 321 331 341 342 340 336 336 340 340 342 343 343 342 342 342 341 340 341 341 341 341 341 340 339 339 338 337 337 336 336 335 336 336 336 337 336 336 336 336 334 333 330 324 323 328 328 326 333 337 337 338 341 342 340 340
323 327 327 329 329 329 329 328 321 313 312 311 314 319 319 320 319 319 319 318 319 318 318 318 319 319 319 319 320 319 319 319 318 319 319 320 323 327 329 323 318 320 322 327 337 341 342 339 335 337 339 340 341 343 342 342 342 341 340 340 340 341 341 340 340 339 339 338 338 337 337 337 336 336 336 337 336 336 336 337 337 337 336 334 331 329 331 331 330 332 336 337 338 340 342 340 340
323 328 328 329 329 328 329 327 320 313 311 310 313 319 319 319 319 319 318 318 318 317 318 318 319 319 318 319 318 318 318 318 319 319 316 321 327 323 322 320 317 323 324 322 331 339 342 340 336 334 338 339 339 342 342 342 341 341 341 340 340 340 340 340 339 338 339 338 338 338 337 337 337 337 337 337 337 336 337 338 338 338 338 336 336 336 336 336 336 336 336 338 338 340 341 340 339
324 327 326 328 331 328 326 324 320 316 312 313 314 318 319 318 318 318 318 318 317 318 318 318 318 318 318 317 317 317 317 318 319 319 317 324 325 318 316 316 320 328 328 323 328 337 341 340 336 333 335 337 339 341 342 341 341 340 340 340 340 340 340 339 338 338 338 338 338 338 338 337 338 337 337 337 337 336 335 337 338 338 338 337 337 338 340 338 338 337 338 337 337 340 341 340 338
325 326 324 326 328 325 324 319 316 315 315 318 316 318 319 317 318 317 318 318 317 318 317 318 318 317 317 317 318 318 317 318 318 320 321 323 319 315 316 316 324 330 331 329 325 333 339 338 334 332 334 336 338 340 341 340 340 339 339 340 339 339 338 338 338 338 338 338 338 338 338 338 338 338 337 337 337 336 334 335 336 337 337 338 338 338 339 339 339 337 339 336 335 340 340 340 339
324 323 325 325 324 323 323 316 314 316 317 319 318 318 318 317 318 317 318 318 317 317 317 317 316 316 317 317 317 318 319 319 318 321 322 319 315 313 314 318 326 328 330 333 325 325 333 332 328 328 330 333 337 340 341 340 340 339 339 339 339 339 339 339 338 338 338 338 338 338 338 338 338 338 337 337 336 335 335 335 335 336 336 337 337 336 337 338 340 338 339 336 334 340 340 340 340
321 321 324 323 325 324 320 315 316 318 317 318 318 317 317 317 317 317 318 317 317 317 317 316 316 315 317 316 316 319 320 319 317 316 317 316 314 313 312 316 323 325 327 334 329 322 323 324 322 323 324 327 334 338 340 340 339 339 339 339 339 339 339 338 337 338 338 338 338 338 338 338 338 337 336 336 335 335 334 335 334 335 335 336 336 336 336 336 338 339 340 336 333 339 340 340 340
320 321 322 323 324 321 317 316 317 318 318 318 317 317 317 316 316 316 317 317 317 316 317 315 315 315 316 316 315 319 321 319 315 314 318 318 314 312 312 313 318 322 326 334 332 325 322 322 321 321 321 322 330 336 338 338 338 339 338 338 338 339 339 338 338 339 339 338 338 338 338 338 338 337 335 335 334 334 334 335 334 334 334 335 336 336 336 336 337 338 340 337 335 338 339 340 340
320 320 321 322 321 316 313 315 317 318 318 317 317 317 316 316 315 316 317 316 317 316 316 315 314 314 314 315 315 318 320 317 314 317 320 317 312 311 313 315 317 319 324 333 334 328 325 323 321 322 322 321 325 332 336 337 338 338 338 338 338 338 338 338 338 339 339 338 339 338 338 338 338 336 335 334 333 333 334 335 334 334 334 334 336 336 336 336 336 337 338 338 338 337 338 340 340
321 321 320 320 318 312 311 314 317 319 318 318 317 316 316 315 315 316 316 316 316 316 315 314 314 314 313 315 317 319 318 316 316 317 315 311 313 314 312 317 321 318 320 328 332 329 327 326 325 322 322 321 321 327 333 335 336 337 337 338 338 337 338 338 338 338 339 338 338 338 338 338 338 336 334 333 332 332 334 336 335 334 333 334 335 336 336 336 337 337 337 337 338 336 338 339 339
320 322 321 319 316 313 314 314 316 319 319 318 317 316 315 315 316 316 316 315 315 316 315 314 314 313 314 315 317 319 318 317 318 315 312 312 315 316 312 315 320 318 316 321 326 327 327 328 328 326 324 322 320 321 327 331 333 334 335 336 337 337 337 338 338 338 338 338 338 338 337 338 337 335 333 333 331 331 333 335 334 334 333 333 334 336 336 336 337 338 338 338 337 336 339 339 337
320 321 321 318 318 318 317 316 317 320 319 317 316 315 315 315 316 315 315 315 315 315 314 313 313 313 314 315 316 317 318 318 318 315 313 313 313 314 313 314 315 314 314 315 318 323 326 328 329 329 328 325 322 319 322 326 329 330 332 333 335 337 337 337 337 337 337 337 337 337 337 337 336 334 333 332 330 331 333 334 333 333 333 334 334 335 335 335 336 336 338 339 337 337 339 339 337
321 320 320 320 321 319 317 318 318 317 317 317 315 315 315 314 315 314 315 315 314 314 313 313 312 313 314 315 316 315 316 318 318 315 314 315 315 317 317 317 316 315 315 314 315 317 322 327 330 331 330 330 327 323 320 321 323 326 328 330 332 335 336 336 337 337 337 337 337 337 336 336 335 333 332 331 330 331 333 333 333 334 334 334 334 335 335 334 334 335 337 338 338 337 338 339 338
321 320 320 321 319 318 318 318 317 316 316 318 315 314 315 315 314 314 314 314 314 314 314 313 312 314 313 313 315 314 315 315 315 315 315 316 318 320 321 321 321 321 320 319 318 317 319 324 329 330 331 331 331 329 325 322 321 322 324 327 329 331 333 335 335 336 336 336 336 336 336 335 334 332 331 330 330 331 332 333 333 333 333 333 333 334 334 334 333 334 336 337 337 338 338 339 338
320 320 321 321 316 316 317 318 318 317 317 317 315 314 315 315 314 313 314 313 313 315 314 313 312 313 314 313 313 314 315 313 313 314 314 314 315 316 318 320 320 320 322 322 323 322 322 323 325 328 330 330 331 331 330 328 326 324 324 325 326 328 331 332 333 335 335 335 335 335 335 335 333 332 331 330 330 330 331 332 332 332 332 332 332 332 332 332 332 334 336 338 337 337 338 338 338
319 321 322 319 316 315 316 318 318 317 317 317 315 315 315 315 314 313 313 312 312 314 315 314 313 314 313 313 312 313 314 313 313 312 311 312 312 312 312 313 313 313 316 318 320 321 322 324 325 325 327 328 329 330 330 330 328 326 325 324 324 326 329 331 332 334 334 334 335 335 334 334 333 332 332 331 330 330 330 331 331 332 332 331 331 331 331 332 332 333 335 337 337 337 337 338 338
319 323 321 317 317 317 316 318 317 316 318 317 316 315 314 314 314 313 313 313 313 314 315 314 314 313 313 312 312 313 313 311 311 310 310 310 310 310 310 310 310 311 312 313 314 315 316 319 322 323 324 325 326 327 329 330 328 326 326 326 326 325 327 330 331 333 333 334 335 335 334 333 333 333 333 332 332 331 330 330 331 331 331 331 332 332 332 331 332 332 335 337 337 337 337 337 336
319 323 320 318 318 317 316 317 316 316 317 316 316 315 314 314 313 313 313 314 315 314 314 313 312 312 312 311 312 312 311 310 309 308 308 308 309 309 309 309 309 310 310 311 311 312 313 314 317 320 322 324 324 325 327 329 328 327 327 329 330 328 328 330 331 332 333 334 335 335 334 334 333 333 333 333 334 333 332 331 331 331 331 332 332 332 331 330 331 332 334 336 336 335 336 335 332
319 320 320 319 317 316 316 316 316 316 315 315 315 315 314 313 312 312 313 314 315 314 313 312 311 311 311 311 313 311 309 309 308 308 307 307 307 307 307 307 307 308 308 308 309 310 310 311 313 315 318 321 323 325 326 327 328 328 328 329 330 331 331 332 332 332 333 333 334 335 335 334 333 333 333 332 333 334 333 332 331 332 332 332 332 332 330 330 331 332 335 335 334 334 333 331 329
319 317 318 317 315 316 315 315 315 314 314 314 314 314 314 313 312 312 313 314 314 313 312 311 311 310 310 311 311 309 308 308 307 307 306 306 306 305 305 305 306 306 306 307 307 307 308 310 311 312 314 317 321 323 324 325 326 327 327 328 329 330 331 332 333 333 333 334 334 334 335 334 334 333 333 332 333 333 333 332 331 331 332 332 332 331 330 330 331 332 335 335 332 332 331 328 326
317 317 317 316 315 316 315 314 314 313 313 313 313 314 313 312 313 312 312 314 314 312 312 311 310 310 310 310 309 308 307 307 306 306 305 305 304 304 304 304 305 305 305 306 306 306 307 308 309 311 312 314 318 320 322 324 325 325 326 327 328 329 330 331 332 333 333 334 334 334 334 334 333 333 333 333 333 332 332 332 331 330 330 331 331 330 329 330 331 333 334 333 330 330 330 328 325
316 317 316 315 315 315 314 313 313 312 312 313 314 313 312 313 313 312 312 313 313 312 312 310 310 311 310 308 307 306 305 305 305 305 304 304 304 304 304 303 304 304 305 305 305 306 306 307 308 309 311 313 315 317 320 322 323 324 325 326 327 328 329 330 331 332 333 333 333 333 333 333 333 333 332 332 332 332 332 332 331 330 330 331 330 329 329 329 330 331 331 330 329 328 327 326 325
315 316 316 314 314 314 313 313 312 312 312 312 313 312 312 313 313 312 312 313 312 312 312 311 311 310 308 307 306 304 304 304 304 304 303 303 303 303 303 303 303 304 304 304 304 304 305 306 307 307 310 312 313 315 318 320 322 323 324 325 326 327 328 329 330 331 332 332 332 333 333 333 333 333 332 332 332 331 332 332 331 330 330 330 329 327 328 328 328 328 327 326 326 325 325 325 325
316 316 315 314 313 313 312 312 312 312 312 312 312 312 313 313 312 312 312 313 312 312 311 311 310 308 307 305 304 303 303 303 303 302 302 302 302 303 303 302 302 303 303 303 303 303 304 305 305 306 309 310 311 314 317 319 321 321 322 324 325 325 326 327 328 329 330 332 332 332 333 333 331 331 331 331 331 331 331 331 331 330 330 329 327 326 326 326 325 325 325 325 325 325 325 325 325
315 315 314 314 314 313 312 312 312 311 311 312 312 312 313 312 311 312 313 312 312 311 311 310 308 306 306 304 303 302 302 302 302 301 301 301 301 302 302 302 302 302 302 303 302 302 303 304 305 306 308 308 310 311 313 317 319 320 321 322 324 324 325 327 327 326 326 329 331 331 331 331 330 330 330 330 330 330 330 330 331 330 330 329 327 326 325 324 323 324 325 325 324 323 324 324 323
313 313 313 313 314 312 312 312 311 311 311 312 312 312 313 312 312 312 313 312 311 311 310 308 307 305 304 303 302 302 301 301 301 301 301 301 300 301 301 301 301 302 302 303 302 302 302 303 304 305 306 307 309 310 311 313 316 318 320 320 322 323 325 327 326 325 325 327 329 330 330 330 330 329 328 329 329 330 330 330 331 330 329 328 326 325 323 322 322 322 323 322 321 321 322 322 321
312 312 312 313 313 312 312 312 311 312 311 311 311 312 313 312 312 313 313 312 310 310 309 308 306 305 304 303 302 302 302 301 300 300 300 300 300 300 300 300 301 302 302 302 302 302 302 302 303 304 305 306 307 308 309 310 312 315 318 319 321 322 324 325 326 326 325 325 327 329 328 329 329 328 328 329 329 329 330 329 329 329 328 327 326 325 322 322 321 321 321 319 318 319 321 321 321
311 311 313 314 313 312 312 312 312 312 311 311 312 312 313 313 313 313 313 311 310 310 308 307 306 305 304 303 302 301 301 300 300 300 299 299 299 299 299 299 300 301 302 302 301 301 301 302 302 303 304 304 305 306 307 309 310 312 315 317 319 321 322 324 325 326 325 324 325 327 328 328 327 327 328 329 328 329 329 328 328 329 327 326 327 325 322 321 321 320 319 318 318 319 320 320 320
313 312 313 315 314 312 313 313 312 312 311 311 312 311 312 314 314 313 313 311 310 309 307 306 305 304 303 302 302 301 301 301 300 299 299 299 298 298 298 298 299 300 301 300 300 300 300 301 302 302 302 302 303 305 306 307 309 310 312 315 318 319 320 323 324 324 324 324 325 325 325 326 326 326 327 329 328 328 328 328 327 328 327 327 327 324 322 321 321 319 319 319 320 320 319 320 319
314 313 314 316 314 313 314 313 313 313 311 312 312 310 311 313 313 312 312 311 309 308 306 306 305 303 302 302 301 301 300 301 300 299 299 299 298 298 298 297 298 299 300 299 299 299 299 300 301 301 302 302 302 303 305 306 307 308 310 312 315 318 320 320 322 323 323 324 325 325 324 324 326 325 325 327 327 326 327 328 327 327 326 326 325 323 321 321 320 319 319 320 320 320 320 320 320
315 313 313 316 314 313 314 313 313 313 312 312 312 309 310 312 312 312 311 309 308 306 305 304 303 302 302 301 301 300 300 300 300 299 299 298 298 298 298 297 297 298 299 299 298 298 298 298 299 301 301 302 302 302 304 305 306 307 307 308 311 315 318 320 320 322 323 323 324 325 325 325 325 325 325 326 326 325 327 327 327 326 326 325 323 322 321 321 320 319 319 319 319 320 320 320 320
316 314 312 314 314 313 313 313 312 312 312 312 311 311 311 312 311 310 309 308 306 305 304 303 302 302 301 301 300 300 300 299 299 299 298 298 298 298 298 297 297 297 297 298 298 298 297 297 298 299 300 301 301 302 303 304 305 306 306 307 308 309 312 317 319 320 321 322 324 324 324 325 325 325 325 325 324 325 326 327 326 326 325 324 323 322 321 320 320 319 318 318 319 319 319 319 319
315 314 312 313 313 312 312 312 313 312 311 310 311 312 312 311 310 309 308 306 305 304 303 302 301 301 301 301 300 299 299 298 298 298 298 298 298 298 297 297 297 296 297 297 298 298 298 298 297 297 298 299 300 301 301 303 303 304 306 306 306 306 307 310 313 317 318 319 322 323 323 324 325 325 324 324 324 324 326 326 326 325 324 324 323 322 321 320 319 319 318 318 318 319 318 318 318
313 313 312 312 312 312 311 312 313 311 311 310 311 311 310 309 308 308 307 305 304 303 302 301 301 300 300 300 299 297 297 298 297 298 298 297 297 297 297 297 297 296 296 296 297 298 298 298 298 297 297 298 298 299 300 301 302 303 304 304 304 305 306 306 307 311 314 316 319 322 323 324 325 325 323 323 324 324 325 326 325 325 324 323 323 322 321 320 319 319 318 318 318 318 317 318 318
311 312 312 313 313 312 312 313 312 310 310 310 309 309 308 308 308 307 306 305 304 302 302 301 300 300 300 299 298 296 296 296 297 297 297 296 296 296 296 296 296 296 296 296 296 297 298 298 298 297 297 297 297 298 299 300 301 301 302 302 302 303 304 305 305 307 311 314 316 319 322 323 324 324 323 323 324 324 323 325 325 324 323 323 323 322 321 320 319 319 318 318 318 318 317 317 317
311 312 313 313 313 312 312 313 312 309 309 309 308 308 307 307 307 306 305 304 303 301 301 300 300 300 299 298 297 296 295 296 296 296 296 295 295 295 295 295 295 295 295 295 296 296 296 296 297 298 297 297 297 297 298 299 299 300 301 300 300 301 302 303 305 306 309 312 313 315 317 320 323 324 323 323 323 323 323 324 325 323 322 322 322 321 321 320 319 319 318 318 318 318 317 317 317
311 312 313 312 312 312 312 313 311 309 308 308 308 307 307 307 306 304 303 303 301 300 300 299 299 299 298 296 296 295 295 296 296 296 295 295 295 295 295 295 295 294 294 295 295 295 295 295 296 296 297 297 297 297 297 298 298 299 300 300 300 300 301 302 304 305 306 309 312 314 314 317 321 323 323 323 323 323 323 324 324 323 322 321 321 321 321 321 320 319 318 318 318 318 317 317 316
311 312 313 312 312 312 312 312 310 308 307 308 308 307 307 306 304 302 302 300 300 299 299 299 298 297 296 295 295 295 295 295 295 295 295 295 294 295 295 295 294 294 294 294 294 294 295 295 295 295 295 296 296 296 296 297 298 298 299 300 300 299 300 301 303 303 304 306 308 312 314 315 318 321 322 322 323 323 323 323 323 322 322 321 321 320 321 321 320 319 318 317 317 317 316 316 316
312 313 313 312 313 311 310 310 309 307 307 308 308 307 307 305 302 300 299 298 298 298 299 299 298 296 296 295 295 295 294 294 294 294 295 294 294 294 294 294 294 294 294 294 294 294 294 294 295 295 295 295 295 296 296 296 297 298 299 300 299 299 299 300 301 301 300 301 303 307 310 313 314 317 320 322 322 323 323 323 322 322 321 321 321 320 320 319 319 319 318 318 317 315 315 315 316
311 315 314 313 311 308 308 308 307 307 308 308 307 306 307 306 303 300 299 298 298 297 298 297 297 296 296 295 295 295 294 294 294 294 294 294 294 294 294 294 294 294 294 294 294 294 294 294 294 295 295 295 295 296 296 296 296 297 298 299 299 299 298 299 299 300 300 300 301 304 307 309 310 311 315 321 323 323 323 322 321 321 321 321 321 320 320 319 319 319 318 317 316 315 315 315 315
311 314 311 309 307 306 307 307 307 307 308 308 306 305 307 307 305 301 299 298 297 297 297 296 296 296 295 295 294 295 295 294 294 294 294 294 294 294 294 294 294 294 294 293 294 294 294 294 294 294 294 295 295 295 296 296 296 296 296 298 299 299 298 299 299 299 300 300 300 302 304 306 309 309 310 316 322 322 323 322 320 320 320 320 320 320 319 318 319 319 318 317 316 315 315 314 315
310 310 307 306 306 306 307 307 307 307 307 307 306 306 306 306 306 304 300 299 297 297 297 296 295 295 294 294 294 294 294 294 294 294 293 293 293 293 293 293 293 293 293 293 293 293 293 293 293 294 294 294 295 295 295 295 295 295 295 296 298 299 299 298 298 299 299 300 300 300 300 302 306 310 310 312 317 321 322 321 320 320 319 319 319 319 318 317 318 318 317 317 316 315 316 315 315
310 307 305 305 305 306 307 307 308 307 306 306 306 307 306 306 307 304 301 299 298 297 296 296 295 294 294 294 294 294 294 294 294 293 293 293 293 293 293 293 293 293 293 293 293 293 293 293 293 293 294 294 294 295 295 295 295 295 295 295 296 298 299 298 298 298 299 300 301 300 300 299 301 306 309 309 312 319 322 321 320 320 319 318 318 319 319 317 317 317 317 317 317 316 316 316 316
308 305 304 305 306 307 308 308 308 306 306 306 306 307 307 307 308 304 302 301 299 297 296 295 295 294 294 294 294 294 294 294 294 293 293 293 293 293 293 293 293 293 293 293 293 293 293 293 293 293 293 294 294 294 294 295 295 295 295 295 295 297 298 299 298 298 298 299 300 301 300 299 298 301 304 305 308 315 320 321 320 319 318 318 317 318 318 317 317 317 317 316 316 315 316 316 317
306 305 306 308 308 309 309 308 306 304 305 306 306 307 307 307 307 305 303 301 298 296 295 295 294 294 294 294 294 294 293 293 293 293 293 293 293 293 293 293 293 293 293 293 293 293 293 293 293 293 293 293 293 293 294 294 295 295 295 295 295 296 297 298 299 298 298 298 299 301 301 300 299 298 301 304 305 309 316 320 319 318 318 317 317 317 317 317 317 316 316 316 315 315 315 316 317
305 306 307 307 308 308 307 305 304 304 306 307 307 307 306 304 304 304 302 299 296 295 295 294 294 294 294 294 293 293 293 293 293 293 293 293 293 293 293 293 293 293 293 293 293 293 293 293 293 293 293 293 293 293 293 293 294 295 295 295 295 295 295 297 299 299 298 298 299 300 300 301 299 297 298 302 303 305 311 318 319 318 318 317 317 317 317 317 317 316 316 316 315 315 315 316 316
307 307 305 306 306 306 305 304 304 304 307 306 304 304 302 301 302 300 297 296 295 294 294 294 294 294 293 293 293 293 293 293 292 292 293 293 293 293 293 293 293 293 293 293 293 292 292 292 292 292 292 292 292 292 293 293 293 294 294 294 295 295 295 296 297 299 298 298 299 299 300 300 299 296 296 299 302 303 306 313 319 318 317 317 316 316 317 317 317 316 315 315 315 315 315 315 316
306 305 304 305 306 305 306 305 305 305 307 304 301 301 299 300 301 299 296 295 295 294 294 294 293 293 293 293 293 293 293 293 292 292 292 292 292 293 292 292 292 293 293 292 292 292 292 292 292 291 291 291 291 292 292 292 292 293 293 294 294 295 295 295 296 298 298 298 298 299 299 300 299 297 296 298 300 301 302 308 316 318 317 316 316 316 316 317 317 316 315 315 315 315 315 315 315
303 303 303 304 304 304 305 305 305 306 305 302 300 300 299 300 300 298 296 295 295 294 294 294 293 293 293 293 293 293 293 292 292 292 292 292 292 293 292 292 292 292 292 292 291 291 291 291 290 290 290 290 290 291 291 292 292 292 292 294 294 294 295 295 296 298 298 298 299 299 299 299 298 296 296 297 298 299 300 302 309 316 317 316 316 316 316 316 316 316 316 315 315 315 315 314 314
302 302 302 302 302 302 303 303 303 304 303 301 300 299 300 301 300 297 296 295 295 295 294 294 293 293 293 293 293 293 292 292 292 292 292 292 292 292 292 292 292 292 291 291 291 290 290 289 288 288 288 288 287 288 289 290 292 292 293 293 294 294 294 295 295 297 298 298 298 299 299 299 297 296 295 295 296 298 299 300 303 311 317 316 315 315 315 315 315 315 316 315 315 315 314 314 314
302 301 301 301 301 301 301 301 302 301 299 300 300 300 301 300 297 296 295 295 295 294 294 293 293 293 293 293 292 292 292 292 292 292 292 292 292 292 292 292 291 291 290 290 290 289 288 287 285 285 285 285 284 284 286 288 289 291 292 293 293 293 294 294 295 297 298 298 298 298 299 299 296 295 295 295 296 296 297 298 300 306 314 317 315 315 315 314 315 315 315 315 315 315 314 314 314
301 300 301 300 299 299 298 299 301 300 299 300 300 300 300 299 297 296 295 295 295 294 293 292 293 293 292 292 292 292 292 292 292 292 291 291 292 292 292 291 291 290 289 288 288 287 286 284 284 284 284 284 283 282 284 286 287 288 288 289 292 293 294 294 294 296 297 298 299 298 299 299 296 295 295 295 295 295 296 297 299 303 311 316 315 315 315 314 314 315 315 315 315 315 315 314 314
301 299 299 298 297 296 296 297 299 299 300 301 300 299 299 298 297 296 295 295 294 293 293 292 292 293 292 292 292 292 292 292 291 291 291 291 291 291 291 290 290 289 288 287 286 285 284 284 284 285 284 284 284 282 283 284 283 284 285 287 289 291 293 294 294 295 296 297 299 298 298 299 297 295 294 294 294 294 294 296 298 300 308 315 315 314 315 314 314 314 314 315 315 314 314 314 313
299 298 297 296 297 297 297 297 297 298 299 300 300 299 298 298 298 296 295 295 294 293 292 292 292 292 292 292 292 292 292 291 291 290 290 291 291 290 290 289 289 288 287 285 284 283 283 283 284 284 283 283 283 282 283 283 281 282 284 286 287 289 291 294 294 295 295 297 299 298 298 298 297 295 294 294 294 294 294 294 297 299 304 312 315 314 315 315 314 314 314 314 314 314 314 313 313
296 297 296 296 296 296 297 297 296 297 298 298 299 298 297 298 297 296 295 294 293 293 292 292 292 292 292 291 291 292 292 291 291 291 290 290 290 289 289 288 287 286 286 284 283 282 281 282 282 282 282 282 282 282 283 283 281 281 282 284 286 286 287 291 293 295 295 297 298 298 298 298 297 295 294 294 293 294 294 293 295 297 300 308 315 314 314 314 314 314 313 313 313 313 313 313 313
297 296 296 296 295 295 296 296 295 295 296 296 297 297 297 296 295 294 294 293 293 292 292 292 292 292 291 291 291 291 291 290 290 290 290 289 289 289 288 287 286 285 284 283 282 282 281 281 281 280 279 280 281 281 281 281 280 280 281 282 283 284 284 286 290 293 295 296 298 298 298 298 296 294 293 294 293 293 293 293 294 296 298 305 313 315 313 314 314 313 313 312 313 313 312 312 312
298 297 296 296 296 296 296 296 295 294 295 295 295 295 296 295 295 294 294 293 293 292 292 292 292 291 291 291 291 291 291 290 290 289 289 288 288 288 287 286 285 284 283 282 282 282 282 280 280 280 279 279 279 280 281 281 280 279 280 281 281 282 283 284 286 289 293 296 297 297 298 297 296 294 293 293 293 293 293 293 293 295 297 301 309 314 313 313 314 313 312 312 312 312 312 311 311
Wind_Speed
5 5 4 4 5 5 4 4 3 3 4 1 4 2 4 5 3 4 5 6 4 3 6 6 6 6 6 8 9 11 10 9 7 7 5 4 3 8 8 10 11 11 9 7 6 9 13 15 18 18 16 15 15 15 14 15 14 16 16 15 15 14 13 13 13 13 13 14 13 12 13 13 14 13 14 14 14 15 15 16 16 15 13 13 15 16 15 15 16 16 16 17 17 17 19 18 17
5 4 4 5 6 5 1 2 3 2 3 3 5 3 4 1 2 6 8 7 5 4 5 5 6 6 6 7 9 10 7 5 6 7 5 4 10 11 9 11 11 12 11 8 6 7 11 14 18 19 18 17 16 16 15 15 15 16 18 17 16 14 14 14 14 14 15 14 14 13 13 14 14 14 15 15 14 15 15 15 16 16 14 12 13 14 15 15 15 16 16 17 17 18 20 20 18
4 4 5 5 6 5 2 2 3 2 0 3 4 4 3 3 5 8 8 7 5 5 3 3 5 5 6 7 6 8 5 6 7 6 6 9 10 7 9 11 12 11 11 10 8 7 9 12 17 18 19 19 17 17 17 16 16 17 17 18 17 16 15 16 16 15 15 15 15 15 14 14 15 15 15 15 15 15 15 16 16 17 16 13 13 13 14 14 14 15 16 16 17 18 22 22 20
3 5 6 5 5 4 4 3 2 3 2 3 3 5 6 5 7 7 7 6 5 3 3 3 3 1 3 8 8 7 6 7 7 6 8 8 6 8 11 12 11 10 12 14 10 8 8 11 16 18 20 21 20 18 18 18 18 17 17 18 18 18 17 18 19 16 15 15 15 15 15 15 15 15 15 15 16 16 16 16 16 17 17 15 14 13 13 13 14 15 15 16 17 19 23 23 22
3 5 6 6 4 1 3 2 2 2 4 3 2 6 7 6 8 8 7 5 4 3 2 4 3 1 2 6 6 5 6 7 8 9 8 6 7 13 13 12 11 8 11 14 12 8 7 11 16 18 19 22 22 19 19 20 20 19 17 18 19 19 19 19 20 18 16 16 17 17 16 16 16 17 17 17 17 18 17 18 17 16 17 16 16 14 13 13 14 16 16 17 18 20 24 23 23
4 5 5 6 4 2 3 1 0 2 5 4 2 5 6 7 8 8 8 4 3 2 2 3 5 5 5 4 3 4 7 7 8 9 6 9 14 18 16 13 9 8 10 13 15 11 8 12 17 18 19 21 23 20 19 21 21 20 19 20 20 20 20 20 20 19 18 17 18 18 17 16 17 19 20 20 19 20 20 20 19 18 18 17 17 16 15 15 15 16 16 18 18 21 23 23 24
5 4 4 5 3 2 3 1 2 3 4 3 3 4 6 7 7 8 8 5 2 3 2 2 5 7 6 2 3 4 4 5 6 8 9 15 19 21 21 15 9 10 10 12 17 17 14 16 19 20 21 21 23 21 20 22 21 20 20 20 21 21 21 20 20 19 18 18 18 19 18 17 19 21 20 20 20 21 21 21 21 21 19 17 17 17 17 16 15 16 17 18 19 21 22 23 24
5 3 1 3 3 3 3 1 2 3 4 2 2 2 5 7 7 7 8 6 3 3 1 1 3 6 4 4 6 2 4 3 5 9 12 15 18 20 21 17 11 11 10 11 16 20 20 22 22 22 22 21 22 23 21 21 21 21 21 21 21 21 21 21 20 19 19 18 19 20 20 20 22 22 20 19 19 20 21 21 21 20 20 19 17 18 18 18 17 17 18 19 20 21 22 24 26
5 4 2 3 4 3 2 1 3 3 4 3 2 2 2 5 6 6 7 7 5 6 4 4 2 5 6 8 8 1 5 1 6 10 11 12 15 17 19 18 15 13 11 11 15 20 22 24 25 24 24 22 21 22 22 21 21 21 22 22 22 22 21 22 21 20 19 19 20 20 20 21 23 23 21 19 19 19 20 20 19 18 19 19 18 18 19 19 18 18 18 18 20 22 22 25 28
4 3 2 3 4 4 2 2 3 3 5 4 3 3 3 5 6 5 6 7 6 7 5 3 2 5 9 10 7 2 3 4 7 8 8 12 16 17 18 17 16 15 13 11 14 19 22 25 26 25 25 24 22 21 21 22 23 23 23 23 23 23 22 22 22 21 20 20 20 20 21 21 22 23 23 21 20 19 18 17 18 18 18 19 19 19 19 19 19 19 19 18 21 22 22 26 29
3 3 2 3 4 3 1 3 3 4 5 4 4 4 4 5 5 5 7 7 6 7 4 3 3 5 10 8 4 2 5 5 6 7 10 16 16 17 19 16 15 18 15 13 15 20 22 22 25 27 25 24 24 23 22 23 24 24 25 24 25 25 24 24 24 22 22 21 20 21 22 21 22 23 24 23 22 19 17 17 17 17 17 18 19 19 19 20 19 20 19 18 21 23 23 27 31
4 2 2 4 3 3 3 3 3 4 5 5 4 4 5 5 5 7 9 9 9 7 5 5 6 7 8 6 5 2 8 8 7 11 19 21 17 17 21 18 16 19 19 17 17 20 21 19 22 26 26 24 24 25 25 25 25 25 25 26 26 26 25 25 25 24 24 23 22 22 22 21 23 24 24 24 23 21 19 17 17 17 17 18 19 19 19 19 19 20 19 19 22 23 24 29 33
4 5 4 4 3 3 3 2 2 2 4 5 4 3 3 6 6 9 8 9 9 7 7 8 8 5 6 6 5 6 9 8 10 20 26 25 22 21 22 19 17 19 20 20 20 21 20 20 19 20 24 25 24 25 27 28 28 27 27 27 27 27 27 26 26 26 25 24 23 23 23 22 24 25 24 23 23 21 19 18 17 17 18 18 19 20 19 19 20 20 19 21 23 23 24 30 34
3 4 4 4 2 2 3 1 2 2 3 5 3 2 4 4 5 9 8 10 9 8 6 6 7 5 5 7 5 8 10 12 16 23 26 23 22 21 20 18 16 16 17 18 19 21 21 20 17 15 17 21 24 25 27 29 29 30 29 29 29 29 29 29 28 28 27 25 25 25 24 24 25 24 24 24 22 20 19 18 18 18 19 19 19 19 19 20 20 19 19 22 24 24 26 32 35
3 3 3 5 2 1 1 2 3 3 2 5 2 2 6 2 2 7 6 9 7 6 4 1 3 5 7 9 8 10 15 19 21 22 23 20 17 16 16 15 13 13 15 17 18 20 20 18 17 15 14 16 18 21 24 26 28 30 31 31 31 31 31 31 30 29 28 27 27 26 25 25 25 24 24 23 22 22 21 21 20 20 20 20 19 19 20 20 19 18 19 23 25 24 27 33 37
3 3 3 4 2 1 1 2 1 2 3 5 4 1 7 2 1 4 4 6 7 3 2 1 1 3 7 10 12 15 17 20 20 20 21 20 18 17 15 15 14 14 14 17 17 17 18 18 17 16 15 16 15 16 18 20 23 26 28 30 31 33 33 33 33 30 28 28 28 27 27 26 25 24 24 24 23 23 22 22 22 21 20 20 20 21 21 21 20 18 18 22 25 26 28 34 40
2 3 4 4 1 1 2 2 2 3 4 3 4 1 8 6 1 2 3 4 7 3 1 4 3 3 9 13 18 20 16 19 20 21 22 21 20 19 19 19 19 19 18 18 18 18 17 17 17 17 17 17 17 17 17 18 22 25 27 28 29 31 33 34 34 31 29 29 29 28 27 27 26 24 22 23 24 23 23 23 23 21 20 21 21 22 21 20 20 18 18 20 25 27 29 34 40
3 3 3 3 1 3 4 3 4 6 6 5 4 4 6 8 6 5 5 4 6 2 6 10 8 8 13 16 20 20 21 23 22 23 24 22 20 19 19 20 21 21 21 21 20 22 21 18 18 18 18 19 18 18 18 19 22 25 26 26 26 28 30 33 34 33 30 28 28 28 27 24 24 22 20 21 21 21 22 23 24 22 20 21 22 21 20 19 18 17 18 20 24 26 29 33 34
3 3 4 1 5 5 4 3 4 7 9 10 9 5 4 6 7 7 8 6 1 5 10 13 13 14 15 17 19 20 25 23 23 25 26 24 22 21 20 20 21 22 23 23 22 23 23 22 21 19 19 19 19 19 19 19 21 21 21 21 22 23 25 28 33 34 31 29 25 25 24 21 22 22 20 20 19 18 19 21 21 21 21 21 20 19 19 17 15 15 18 21 25 26 30 34 33
1 3 4 3 6 4 4 2 2 7 10 12 10 7 6 2 5 6 7 8 5 10 12 13 14 15 16 17 18 22 24 23 24 25 26 26 25 22 22 22 23 23 24 24 23 23 24 24 23 21 21 20 20 19 19 20 20 20 18 18 19 19 20 22 27 30 30 29 26 25 24 23 23 22 21 21 21 18 16 18 18 18 20 20 19 18 18 16 14 15 19 24 30 33 35 35 35
1 3 2 6 4 2 5 2 3 7 10 11 10 10 6 2 3 5 6 6 5 11 12 13 14 15 16 15 18 21 22 22 24 25 25 26 26 24 23 23 23 23 23 23 24 25 27 27 25 24 22 20 20 20 20 20 20 20 19 18 18 18 19 20 23 24 26 28 28 27 26 26 24 22 21 21 21 19 16 17 18 18 17 18 18 16 16 15 14 17 21 26 31 36 39 36 35
2 2 3 7 3 2 4 2 3 7 10 9 9 8 6 4 4 2 6 5 7 9 11 12 13 13 14 15 18 19 20 20 22 24 25 26 27 26 25 25 24 24 24 25 26 26 27 29 28 26 24 22 21 20 20 20 20 21 21 19 19 18 19 21 23 23 24 26 29 30 29 28 25 22 21 20 19 18 17 16 18 18 17 18 17 14 15 12 15 22 25 27 26 29 36 38 36
3 1 4 5 4 3 2 1 2 7 10 9 8 7 7 8 3 3 4 6 9 10 9 10 11 11 15 18 18 18 18 18 20 22 23 24 26 26 26 26 25 25 25 26 27 27 28 30 30 29 27 25 23 21 20 20 20 21 21 20 19 19 19 21 23 23 24 25 28 29 29 28 24 24 22 19 19 17 16 16 17 19 19 19 16 14 14 10 16 23 24 28 27 25 28 35 37
4 1 5 5 3 2 1 2 4 7 9 9 9 9 8 6 3 2 5 9 10 10 7 8 11 13 17 18 17 18 18 19 21 22 22 23 24 25 25 25 26 25 25 27 27 28 30 30 31 31 28 27 26 24 22 20 19 20 21 21 21 21 20 22 23 24 25 26 27 26 27 26 24 25 23 20 20 18 17 16 16 19 21 21 17 15 15 14 18 23 24 27 31 31 28 30 35
5 3 4 3 0 1 1 2 4 5 6 8 9 12 5 2 2 2 6 8 10 11 9 10 12 14 16 16 17 17 17 20 22 23 23 22 24 25 26 26 27 27 27 27 27 28 30 30 32 32 29 29 28 25 23 21 20 21 21 22 22 22 22 23 25 27 28 27 27 27 27 27 26 25 23 20 20 20 19 17 17 20 21 21 17 17 22 24 26 28 30 31 33 35 33 28 26
2 5 5 3 2 2 2 2 1 1 3 7 10 12 3 4 2 3 7 8 11 11 11 12 13 14 14 15 16 16 17 19 21 23 24 23 25 26 27 28 28 28 27 27 28 29 30 30 31 32 30 30 30 27 25 23 22 22 22 23 23 23 24 25 28 30 31 30 27 28 29 29 28 25 22 21 20 20 21 19 18 20 20 20 19 20 28 32 34 34 35 36 35 34 34 29 21
2 7 7 8 3 3 3 4 3 3 3 8 12 14 5 4 5 3 6 9 11 9 12 13 13 14 14 14 14 15 17 19 21 23 24 25 26 27 27 28 28 28 27 27 28 29 30 30 30 31 30 31 31 28 27 25 24 23 23 24 25 25 25 27 29 29 31 33 30 29 30 29 30 29 24 22 22 21 21 21 20 21 22 21 22 24 27 31 35 37 37 36 33 30 30 28 23
4 7 8 6 6 7 5 6 6 6 2 8 12 14 7 4 4 3 6 10 11 8 13 13 12 12 13 14 13 13 15 19 22 23 24 24 24 25 26 27 27 26 25 25 27 28 30 29 29 30 30 32 32 30 28 27 25 24 24 24 25 26 27 27 28 28 29 33 34 31 30 29 30 31 25 22 24 21 21 24 22 24 25 21 23 27 25 29 35 38 38 33 30 29 29 29 28
4 4 7 2 10 9 5 5 8 6 3 7 10 10 5 6 5 5 7 9 9 8 12 12 12 11 11 12 11 11 15 19 22 22 22 22 22 23 25 26 27 25 24 24 26 28 29 28 28 28 28 31 32 30 29 28 27 26 25 24 24 25 27 28 28 28 28 32 35 33 31 29 30 30 25 23 24 22 23 26 23 24 25 23 24 29 29 31 34 37 36 32 30 33 33 32 32
4 3 4 2 7 8 5 4 7 6 2 6 9 7 2 3 8 5 7 8 6 8 11 10 10 9 9 10 10 11 14 18 19 21 22 21 22 23 24 26 27 26 25 25 27 29 28 28 27 26 27 30 30 29 30 29 28 28 27 25 24 25 26 29 30 30 30 31 33 36 36 33 31 32 27 24 25 24 23 24 24 24 24 24 27 34 36 32 32 34 34 34 35 38 37 35 35
3 3 3 2 1 4 7 4 3 3 1 5 8 5 5 6 4 3 10 6 7 9 10 9 9 8 8 9 9 10 13 16 18 20 22 22 22 23 24 26 27 27 26 26 28 28 28 28 27 26 27 28 28 28 28 28 28 28 27 27 25 25 26 28 31 32 33 32 32 35 38 35 34 35 31 28 28 28 24 22 26 27 24 24 29 37 37 31 30 30 32 37 37 36 37 37 37
3 1 1 0 2 1 6 6 4 3 3 5 8 6 7 8 9 11 8 9 11 11 10 9 9 8 8 8 9 10 11 15 18 20 22 22 22 23 23 26 27 27 26 26 28 28 29 29 28 28 28 28 27 27 27 26 27 27 27 28 27 26 27 28 29 30 33 34 34 34 37 37 37 37 34 32 31 30 26 22 27 31 26 24 32 38 37 32 31 32 35 39 38 34 33 35 36
3 1 3 3 3 3 1 6 6 7 6 6 4 5 6 9 12 10 12 13 12 11 10 9 8 8 9 8 8 10 10 13 16 20 24 23 22 24 24 25 26 26 25 26 27 28 28 29 29 28 28 28 28 27 27 25 25 26 27 26 27 27 27 28 29 30 32 34 35 36 36 35 37 38 38 35 32 30 27 23 26 32 28 23 32 38 37 35 34 35 35 34 38 37 32 32 34
2 4 4 5 5 6 3 3 4 7 7 7 4 4 7 11 11 11 15 12 12 11 9 9 8 7 8 8 9 11 11 12 14 19 23 23 22 23 23 23 24 24 24 25 26 26 27 28 29 29 29 28 28 27 26 25 25 25 24 25 27 28 26 27 29 31 32 33 34 37 36 34 35 38 39 38 36 31 28 26 26 33 32 22 27 36 37 37 34 35 35 31 34 36 32 31 33
6 6 6 7 6 7 7 3 3 6 5 5 4 5 7 12 8 10 11 11 13 10 8 7 7 7 8 8 10 12 12 12 14 18 21 21 21 22 22 21 21 22 23 24 26 25 25 27 28 29 29 29 29 28 26 25 25 24 23 24 27 27 26 28 30 31 32 34 33 34 36 35 35 35 37 39 38 32 30 29 28 34 35 24 26 33 35 35 33 34 36 32 31 33 31 32 33
8 8 7 8 7 7 8 4 6 7 6 3 4 8 8 13 6 9 9 11 12 9 8 6 5 6 7 8 9 12 12 12 14 17 19 19 20 21 22 20 20 22 23 24 26 25 26 28 28 29 29 30 30 29 27 25 25 25 24 24 26 26 27 29 31 31 31 32 32 31 33 36 35 34 37 39 36 33 31 30 30 34 35 28 30 34 34 35 34 34 37 35 33 30 28 31 32
7 8 8 9 10 8 6 3 6 7 4 4 7 10 11 14 3 10 8 10 11 9 8 6 6 6 7 8 10 12 11 11 13 16 18 19 20 21 22 21 22 24 24 25 26 25 27 28 28 28 29 30 30 30 29 27 25 25 25 25 25 25 27 29 30 30 30 31 33 33 34 36 37 35 37 39 36 34 32 30 32 33 32 30 34 36 36 37 37 36 36 36 36 32 28 30 33
7 8 8 9 8 8 8 3 4 5 5 5 6 10 15 10 6 11 7 9 9 7 7 6 7 7 7 9 10 11 10 10 12 16 18 20 21 24 24 23 25 26 26 27 26 27 29 28 28 29 30 30 30 30 30 28 27 25 25 26 25 25 25 26 27 30 31 32 34 35 34 34 36 36 35 38 38 36 35 33 33 32 31 32 34 36 37 37 37 37 36 34 34 34 31 33 37
8 7 7 8 6 8 6 3 4 6 7 5 5 10 13 2 13 10 8 10 8 7 7 6 7 7 7 9 9 10 11 11 13 15 19 22 24 25 25 24 25 26 27 27 27 29 29 28 29 30 32 32 31 31 30 30 29 28 27 26 26 26 24 24 25 27 30 30 31 33 33 32 32 35 37 37 38 38 39 37 36 34 33 34 35 36 38 39 37 37 41 39 34 31 30 35 43
7 6 6 8 6 8 3 1 8 11 5 3 6 9 6 7 12 9 10 10 9 8 8 7 6 7 7 8 9 11 13 13 14 15 17 22 24 24 24 24 25 26 26 26 27 28 28 29 31 32 33 33 32 32 31 31 32 30 28 26 26 26 25 24 24 23 26 30 30 31 31 31 33 35 36 38 37 38 41 41 39 38 35 36 40 42 40 41 41 39 43 44 38 32 27 33 41
7 4 5 7 6 8 8 8 14 9 2 3 7 10 3 8 10 8 9 9 9 7 7 6 5 6 7 9 10 11 12 12 14 15 17 21 23 25 27 28 28 27 27 28 29 30 30 31 33 33 33 33 34 33 33 33 32 30 27 27 26 26 25 23 23 23 24 29 31 31 30 31 34 36 35 37 39 37 40 43 40 38 36 35 41 46 39 39 44 44 45 43 41 39 31 32 37
7 1 3 6 7 9 11 12 13 8 2 5 9 8 5 5 10 10 9 8 8 6 5 5 5 7 9 10 11 11 11 11 12 15 18 22 25 27 29 31 31 31 31 31 32 32 33 34 35 35 34 33 34 34 34 33 32 31 28 27 25 26 26 23 22 25 26 26 28 31 32 32 33 35 36 35 39 41 39 40 40 40 39 36 40 42 35 39 46 45 47 45 41 42 36 31 33
6 3 4 6 7 9 11 12 10 6 8 5 5 5 6 5 8 12 12 8 7 5 5 5 6 9 10 10 10 11 12 12 13 16 20 23 26 28 30 33 32 32 34 34 34 34 36 38 38 38 36 35 35 35 35 34 33 31 29 28 26 25 27 25 23 25 26 24 25 30 33 33 31 31 34 34 34 42 43 39 40 41 40 39 42 41 36 42 47 44 48 50 45 44 40 35 34
4 5 6 7 9 10 11 10 7 6 10 9 5 7 7 8 5 11 13 9 6 3 4 6 8 10 11 11 12 13 14 14 14 17 21 23 27 29 31 33 34 35 36 35 36 37 38 40 41 41 40 38 37 36 36 35 34 33 31 30 28 26 27 29 27 25 25 24 24 26 31 33 32 31 31 31 33 37 45 44 40 41 40 39 42 43 40 44 47 44 46 48 47 45 44 42 39
3 8 7 7 8 10 9 8 8 8 8 8 6 6 6 7 3 10 10 8 3 2 5 7 9 12 12 12 13 14 15 16 15 16 19 23 27 31 32 34 35 36 36 36 37 39 40 43 43 43 42 41 39 38 37 36 35 34 33 31 30 28 26 28 29 27 25 24 24 24 27 32 33 33 33 30 32 33 38 45 40 39 41 40 41 42 42 46 48 46 45 44 44 45 45 43 41
5 7 7 8 8 9 9 7 8 7 6 9 8 8 6 7 3 7 7 6 1 3 5 7 11 12 13 13 14 16 16 15 16 17 20 25 29 32 33 34 36 36 37 38 40 43 46 47 47 45 43 42 41 40 39 37 36 35 34 32 31 30 28 27 28 29 26 23 22 22 23 26 29 33 36 33 31 33 34 43 43 41 43 42 42 42 41 47 51 49 48 47 45 45 44 41 40
7 7 8 8 8 8 8 6 5 5 5 5 4 6 5 6 3 2 3 3 2 4 5 8 11 12 13 14 14 17 16 15 16 17 21 28 32 33 34 35 37 38 39 41 44 48 48 46 46 45 43 42 42 41 40 40 38 36 35 34 33 32 31 28 27 27 27 24 22 21 20 19 24 30 33 34 32 33 34 39 48 45 44 44 44 43 41 46 51 52 52 50 47 47 46 42 39
6 5 6 7 7 6 6 3 1 4 5 0 6 3 4 7 3 2 5 5 4 4 5 8 12 13 14 14 14 16 15 15 16 17 19 24 27 31 34 36 39 41 42 44 46 48 46 43 42 43 43 42 42 41 41 41 40 37 36 36 35 33 31 30 27 26 27 26 22 21 19 17 22 29 30 33 32 31 35 33 45 46 42 43 45 44 43 48 51 51 53 51 48 48 48 44 37
4 4 4 6 6 6 4 3 2 6 4 4 6 3 3 10 7 5 10 7 5 4 6 8 12 14 15 15 15 15 14 15 16 17 18 19 21 27 33 37 40 41 43 45 47 45 42 41 41 42 44 43 42 42 42 41 41 40 38 36 35 33 32 32 29 26 27 26 21 20 19 16 20 27 28 31 32 30 35 33 35 45 43 42 47 46 44 49 50 49 53 53 51 49 49 46 40
1 2 3 4 5 6 7 5 5 6 2 3 1 5 5 9 5 9 12 7 5 5 7 8 12 14 15 15 15 15 15 16 16 17 18 18 20 28 33 36 38 40 43 45 45 43 41 40 41 42 44 43 43 43 42 41 41 41 40 36 35 34 32 32 30 26 27 25 20 20 19 16 19 24 26 28 31 30 32 36 32 38 44 42 47 49 45 48 48 46 49 52 51 51 49 47 43
1 1 1 2 3 4 6 5 6 7 7 5 4 4 5 6 2 10 9 6 4 5 8 10 13 13 13 14 15 15 15 16 16 17 19 21 27 32 33 34 37 40 43 42 42 43 41 39 41 44 44 43 45 46 44 43 42 40 38 36 35 33 32 32 31 27 27 26 21 20 19 17 21 24 25 27 29 29 31 35 37 33 42 44 45 48 46 46 47 45 47 48 48 47 48 47 45
1 2 1 1 1 4 5 7 7 6 9 8 4 4 5 1 6 10 7 4 1 6 10 12 14 14 14 13 14 15 15 15 16 17 20 24 31 33 32 34 36 38 40 41 40 39 36 37 43 46 43 41 46 49 48 47 44 40 38 38 36 34 33 33 32 29 28 27 23 21 20 19 23 26 23 25 27 28 32 34 37 35 37 44 43 47 47 45 48 49 47 47 45 45 46 47 45
2 2 1 2 3 1 5 8 5 2 7 7 4 5 5 1 6 9 7 2 2 7 11 13 15 15 15 13 13 15 15 16 17 18 20 24 28 31 32 35 36 36 39 42 42 38 35 38 41 42 41 40 43 46 45 42 41 42 44 44 40 35 34 34 33 30 29 27 24 22 21 19 22 26 23 23 25 27 32 33 35 37 34 43 44 46 49 47 48 50 48 48 46 45 46 46 45
1 2 1 3 3 0 3 5 3 3 8 6 5 8 8 4 3 7 7 1 6 9 13 14 15 15 14 13 14 16 17 17 19 21 22 23 26 30 33 36 38 38 40 41 41 39 39 43 43 41 43 43 42 44 44 41 43 45 45 45 44 41 37 34 33 32 30 29 25 22 21 19 20 24 23 22 24 25 30 33 33 35 32 39 47 47 48 48 48 48 48 49 48 46 45 45 45
1 0 1 1 2 2 4 3 3 5 7 6 7 9 8 8 3 5 4 4 8 10 14 15 16 15 14 15 16 18 18 18 20 22 21 20 26 33 37 39 41 41 40 40 40 41 43 43 43 42 43 43 42 43 44 41 41 44 42 40 43 44 39 33 32 32 31 29 25 23 22 20 19 23 23 21 23 24 26 31 32 33 33 33 47 50 47 48 46 47 48 46 47 47 45 43 44
3 1 1 1 2 4 4 2 1 4 6 6 9 8 5 4 2 4 1 6 8 11 14 14 15 16 15 16 17 18 19 18 19 20 20 21 28 36 39 39 41 41 40 39 38 41 43 42 41 42 41 42 42 40 41 39 38 39 41 41 40 43 45 40 33 31 31 29 26 24 23 21 20 23 23 21 22 22 24 29 32 31 33 32 42 50 47 48 46 44 46 44 44 46 44 43 43
4 4 4 4 3 2 3 3 2 3 6 6 8 9 4 3 4 1 3 5 7 12 14 13 14 16 16 17 17 17 18 19 20 20 20 22 28 36 38 37 38 38 38 39 39 40 42 41 40 40 39 40 40 39 40 39 38 38 38 39 40 42 48 49 40 32 31 31 28 24 24 23 22 23 23 21 20 22 23 27 31 31 32 32 36 47 46 46 45 44 45 44 43 45 44 42 43
4 5 6 6 6 4 3 5 2 2 5 6 6 11 8 3 2 2 2 3 8 12 14 13 14 16 17 17 18 19 19 19 20 20 20 22 27 33 35 37 37 36 37 41 41 42 42 41 41 40 38 38 40 41 40 39 40 38 36 36 38 39 41 45 45 41 34 29 28 27 26 26 24 23 22 22 20 21 23 26 30 32 32 33 31 41 47 44 44 44 45 45 44 45 45 43 43
Wind_Direction
318 301 271 238 218 234 224 232 247 183 239 63 63 36 58 34 322 325 360 357 339 45 14 336 325 312 305 317 323 318 305 300 300 312 330 66 338 317 329 326 318 303 287 263 227 238 247 231 219 212 206 206 212 216 217 219 218 223 225 222 222 222 224 226 228 234 239 239 238 239 241 241 241 243 243 244 243 239 239 238 237 244 252 253 251 247 245 245 243 244 245 244 243 238 241 239 228
313 285 243 230 221 234 229 222 265 194 210 102 72 29 37 339 305 353 358 353 345 5 351 318 311 296 293 289 293 298 296 307 302 306 325 6 328 332 347 335 325 302 286 262 230 232 243 239 227 218 215 210 212 218 220 223 224 229 231 228 226 228 230 231 233 237 241 241 242 242 241 242 242 245 246 246 246 243 244 240 238 245 254 255 253 247 243 245 242 244 244 243 243 239 241 238 225
295 266 233 227 220 231 254 219 281 328 339 75 70 51 23 337 358 358 353 353 346 343 318 299 289 278 289 275 296 312 313 332 329 322 322 336 332 355 358 333 324 299 280 261 242 233 234 239 236 227 222 219 215 219 223 225 229 233 235 232 230 233 235 235 236 238 242 240 242 242 242 244 244 247 248 247 248 247 247 244 241 244 250 251 252 250 245 245 244 243 243 242 242 240 242 238 227
297 261 243 245 227 219 246 238 302 326 23 50 70 58 24 1 4 353 353 353 346 336 308 317 295 200 300 302 322 313 306 330 354 355 317 332 332 327 328 321 318 291 273 262 247 241 233 235 242 237 228 225 221 220 224 226 231 234 235 234 235 238 239 241 241 242 245 243 243 243 245 246 246 248 247 246 248 249 248 245 243 245 249 251 251 252 249 248 248 244 243 242 238 240 243 240 230
299 258 250 261 260 234 267 263 300 329 41 9 32 54 25 9 2 352 345 344 3 5 343 330 326 38 276 292 308 301 334 335 345 347 318 327 315 312 318 320 313 273 265 263 251 245 244 241 243 244 236 230 225 222 226 228 231 233 234 234 237 240 243 247 247 246 246 245 245 244 246 246 246 246 245 244 244 245 247 245 244 244 246 251 251 248 247 249 251 248 244 241 235 238 242 237 229
284 263 235 243 273 323 274 241 343 62 60 349 8 45 20 12 359 345 334 351 60 56 23 345 340 322 278 270 262 262 323 324 328 337 321 315 307 307 311 314 304 263 256 258 255 245 241 247 245 245 244 236 226 225 229 231 233 234 234 234 236 239 243 248 249 249 248 248 248 248 247 247 248 246 245 244 243 245 250 251 249 247 244 248 251 248 246 246 249 249 245 240 235 239 241 231 225
289 287 222 228 250 252 263 323 29 70 71 355 15 32 16 12 354 337 334 2 81 109 103 1 350 308 279 305 287 230 268 289 309 320 310 306 304 306 308 309 295 274 256 248 258 251 241 248 251 251 250 244 230 227 231 233 236 236 236 236 238 240 243 247 249 251 250 250 251 252 250 248 251 249 248 247 247 248 253 256 253 250 246 245 249 251 251 249 248 247 245 239 236 242 239 224 217
273 286 248 254 241 213 263 30 57 53 77 55 47 35 14 3 350 334 334 348 352 17 59 68 8 303 307 335 310 161 160 241 294 311 311 306 308 311 311 309 296 284 271 249 258 259 252 252 256 259 259 253 237 229 230 234 239 238 239 238 239 241 244 247 249 250 250 251 250 252 251 251 253 253 254 255 254 254 257 256 253 251 248 247 250 253 256 256 253 246 245 240 236 242 237 219 209
247 257 263 272 263 229 257 124 88 65 89 107 119 98 13 349 337 322 323 333 337 342 354 37 8 291 328 325 310 24 121 88 323 325 328 324 325 321 316 314 304 294 283 259 260 266 262 259 260 261 263 259 242 233 233 238 243 242 242 242 241 242 244 246 248 249 248 249 250 251 252 253 255 256 259 261 261 260 259 255 251 251 249 249 250 254 257 258 258 250 245 240 237 240 233 217 206
246 240 271 287 277 249 233 95 91 93 87 95 98 62 10 348 329 312 310 318 332 329 357 38 269 277 317 312 309 360 71 7 341 348 351 340 337 331 323 316 309 300 286 270 266 270 268 267 265 262 263 261 248 238 237 240 243 244 244 244 244 244 244 245 246 248 248 248 249 251 251 252 255 257 260 265 266 263 257 252 249 250 251 250 252 255 257 258 259 255 246 240 239 237 228 213 204
265 214 258 282 267 268 12 55 72 86 82 106 108 49 3 340 314 314 321 318 331 328 9 56 317 327 314 313 341 73 91 37 18 11 343 335 336 331 327 319 307 305 295 279 271 275 275 272 271 267 264 261 254 245 239 238 242 245 246 246 245 246 247 246 246 246 247 248 248 249 249 249 252 259 263 267 268 264 254 251 250 250 252 252 254 256 257 260 259 258 248 239 239 236 226 212 203
290 283 277 277 293 349 24 23 39 75 104 114 90 45 349 325 305 327 337 330 333 341 42 36 344 332 318 338 348 31 90 63 19 344 334 333 333 326 326 324 310 307 305 294 282 280 279 276 274 274 273 266 258 252 247 242 241 242 244 246 246 247 248 247 247 245 245 246 247 248 247 246 250 259 265 268 268 264 254 251 252 252 253 252 254 254 257 260 261 262 250 238 237 235 223 209 203
300 326 303 286 333 348 1 353 21 82 134 98 52 31 326 321 331 339 336 325 334 1 35 9 332 308 329 351 325 357 53 47 355 337 336 334 333 334 335 335 322 317 316 309 299 291 285 281 276 276 280 277 267 258 253 249 246 246 245 245 245 246 246 247 247 246 245 244 245 247 246 244 250 258 263 267 268 263 255 252 252 252 252 251 252 254 258 259 260 264 254 238 235 232 218 205 201
314 332 306 292 326 308 325 343 18 359 122 97 50 12 309 309 344 334 327 329 356 24 14 348 323 305 345 350 348 0 6 6 351 341 341 337 335 339 342 343 335 333 334 331 321 310 296 284 277 272 276 280 278 270 263 258 255 253 251 250 247 246 245 246 248 248 246 242 243 247 246 246 250 256 260 264 266 262 254 251 251 251 251 250 252 256 259 259 257 261 256 240 234 229 216 206 200
320 322 286 278 274 253 358 45 16 328 64 87 112 348 310 290 347 322 338 336 348 10 340 293 308 325 358 350 353 348 343 352 351 346 348 347 343 337 335 338 335 332 333 338 337 330 318 298 284 276 270 271 275 276 273 269 265 261 257 255 252 249 248 247 248 248 247 244 243 245 246 248 252 254 257 261 263 262 257 252 251 250 250 250 253 256 258 259 257 259 257 242 234 227 218 210 203
314 307 266 263 251 211 84 49 352 268 16 66 156 232 319 321 144 310 355 331 315 325 305 110 262 334 1 355 349 336 338 354 358 1 4 4 4 359 357 356 351 344 336 334 332 333 330 316 301 288 278 272 269 270 271 270 270 268 265 261 256 252 250 249 249 247 248 247 245 245 244 247 253 255 256 257 259 260 256 253 253 251 250 251 252 253 257 262 263 262 255 243 233 225 221 214 206
287 266 253 259 222 107 67 31 356 305 337 56 151 29 335 335 45 316 319 266 283 296 70 44 59 21 359 2 351 343 356 12 15 18 19 18 15 14 14 11 7 3 358 350 343 341 334 322 312 300 291 283 277 272 269 267 268 270 269 267 263 256 251 249 250 248 247 248 247 246 244 245 250 253 254 257 259 257 252 251 252 252 250 251 253 255 259 263 265 260 250 240 230 226 224 216 210
267 251 259 279 62 70 53 36 6 319 307 340 349 17 346 332 351 349 333 239 238 291 45 35 27 14 4 2 351 2 30 31 29 30 29 26 21 21 19 16 14 10 6 2 358 353 345 334 322 312 304 296 288 280 272 268 270 271 269 268 266 262 255 249 249 247 246 246 246 245 243 242 246 247 246 250 253 251 250 249 250 251 250 252 255 259 261 263 265 256 245 232 221 221 219 209 201
267 282 279 351 62 61 47 47 9 318 308 322 329 359 344 333 344 345 345 334 351 41 34 21 5 359 359 358 358 23 41 36 35 34 33 29 24 23 20 18 15 13 9 5 2 358 354 346 336 325 314 307 300 289 279 274 274 272 269 265 261 262 259 252 250 248 245 244 244 243 240 237 238 240 239 239 240 239 243 246 246 246 247 250 253 259 263 266 268 252 238 222 208 201 198 193 180
280 299 286 72 57 73 77 49 349 314 306 312 321 328 320 356 344 333 332 322 26 49 26 6 356 354 350 355 14 37 42 37 37 35 34 31 26 24 20 19 17 14 11 7 4 3 0 354 346 338 326 317 309 300 291 283 280 276 271 265 259 257 254 250 249 246 244 243 242 239 236 235 233 235 236 234 232 228 233 238 239 240 244 247 249 257 261 265 262 246 232 212 197 186 181 179 172
327 294 336 77 41 104 103 34 329 305 299 308 315 311 321 49 315 322 334 318 52 48 19 4 353 349 350 9 36 43 40 37 36 34 34 31 28 25 21 18 16 14 11 8 7 5 3 358 353 346 336 328 318 309 302 293 289 284 277 269 263 258 255 250 245 243 241 239 239 237 236 235 231 230 230 228 227 225 225 229 232 233 238 242 243 248 251 253 242 227 218 200 186 181 179 176 172
268 258 51 78 19 59 94 7 321 301 297 299 301 311 338 334 292 343 350 358 61 28 8 7 353 349 7 38 49 44 41 38 35 34 32 30 28 24 20 17 15 13 10 9 7 4 2 360 357 352 345 337 327 317 308 301 295 288 282 275 268 263 260 257 250 244 241 236 235 235 236 234 229 228 225 222 222 221 219 220 226 228 228 232 233 234 239 239 218 209 205 195 181 175 175 171 170
272 215 86 75 24 49 72 322 280 287 291 291 307 336 324 303 327 48 18 54 48 9 12 12 358 11 39 54 51 45 43 39 36 34 31 28 26 22 18 15 12 11 9 8 5 2 0 359 359 357 352 346 337 326 316 307 300 293 286 279 274 270 264 262 258 250 245 240 236 233 234 234 230 227 222 219 218 216 216 215 218 221 219 218 217 217 222 214 197 195 191 187 178 164 157 159 165
245 285 84 76 32 43 354 295 268 277 290 298 314 313 294 302 355 68 70 67 24 2 40 27 19 46 57 57 51 49 44 38 36 32 30 27 23 21 18 14 11 8 8 7 4 2 359 358 358 357 356 353 345 336 325 314 307 299 292 283 276 274 269 264 262 257 251 245 240 232 230 231 229 227 223 216 214 213 213 212 213 215 214 212 211 202 190 173 172 174 170 167 162 153 141 144 156
207 301 40 74 208 119 199 247 272 283 297 309 308 295 292 19 344 130 85 57 8 9 56 48 51 66 61 57 54 49 42 36 33 28 27 23 19 18 16 13 9 7 6 5 3 1 358 356 356 356 356 354 349 342 334 323 314 305 297 289 280 277 272 265 261 260 258 253 246 236 230 230 229 231 227 217 211 211 210 210 210 212 213 209 203 188 171 160 157 159 157 153 150 148 143 140 145
159 309 334 306 268 127 186 209 266 288 322 320 301 299 349 106 208 133 84 36 7 22 68 69 72 74 62 60 53 46 43 36 30 26 23 20 17 15 13 10 6 4 1 0 2 0 357 355 355 354 353 352 349 345 340 330 320 311 302 295 287 281 274 268 265 262 260 258 253 243 236 233 232 233 229 220 213 209 206 206 207 207 206 199 192 180 166 156 151 152 152 150 149 148 147 148 143
342 304 300 281 248 125 165 147 127 138 21 328 302 306 331 152 203 147 75 26 12 42 81 81 79 75 66 62 53 46 44 36 30 25 21 19 17 12 10 7 4 1 356 357 359 356 354 354 354 353 351 350 348 345 342 336 327 317 309 301 293 284 278 274 270 266 260 257 256 249 243 237 234 234 230 223 215 207 202 201 203 201 199 195 194 187 172 159 153 152 151 148 149 149 150 153 151
314 308 302 270 153 132 155 138 153 160 39 324 304 303 296 184 184 101 58 19 14 61 89 84 80 74 67 61 53 47 41 36 31 26 23 19 15 10 7 5 1 358 356 356 354 352 352 352 352 351 350 349 347 345 341 337 332 324 315 307 298 291 285 280 274 268 263 258 255 253 248 240 235 234 231 224 215 205 201 202 200 201 198 189 192 194 179 163 156 152 151 152 154 156 158 158 158
286 293 303 259 133 139 154 135 167 168 10 317 306 303 256 160 134 66 37 13 19 77 91 81 78 71 65 59 52 47 39 35 32 27 23 18 13 9 6 4 0 357 355 353 352 351 350 350 349 348 348 348 345 343 340 336 333 328 321 311 303 297 290 284 277 271 269 264 257 253 250 245 239 235 230 223 216 205 202 201 197 202 198 186 193 193 176 162 158 154 154 161 163 162 160 160 161
246 208 273 250 138 151 154 124 162 161 2 303 311 319 269 125 127 99 13 12 42 88 87 78 78 71 62 54 49 46 38 33 30 25 19 14 11 7 4 3 360 357 353 352 352 351 349 348 346 344 344 345 343 340 339 336 333 329 324 317 309 303 295 289 282 276 273 267 260 256 254 250 243 238 231 223 218 207 201 197 194 200 196 189 193 186 172 164 161 159 160 163 163 162 162 162 163
204 166 203 221 104 146 140 113 153 169 313 305 322 318 305 346 80 6 351 35 92 94 86 82 79 68 59 50 43 40 35 31 25 20 15 11 8 3 1 0 358 356 352 351 351 350 348 347 344 341 339 340 340 339 337 334 332 330 327 322 316 308 301 295 289 284 276 266 261 258 255 250 244 240 233 228 222 210 202 196 193 198 194 187 185 179 175 170 164 165 167 164 161 163 165 165 166
194 191 207 26 359 96 123 107 73 37 1 350 345 319 302 329 343 345 16 88 103 97 90 86 77 65 54 46 39 32 30 26 19 16 12 7 4 1 358 357 355 353 350 349 348 347 347 346 344 340 337 337 337 336 334 332 331 329 327 324 321 315 309 302 295 290 281 268 259 256 253 249 246 242 234 231 228 213 199 192 192 194 190 183 180 179 180 175 168 168 170 168 165 167 169 168 168
180 359 328 324 316 314 97 114 80 47 14 355 345 301 301 323 343 25 88 104 103 102 97 88 75 60 49 41 36 26 20 18 13 11 8 3 359 356 353 352 351 349 346 345 344 343 344 344 343 340 336 335 333 333 332 330 329 327 325 324 323 321 316 309 303 299 291 275 261 256 254 248 244 241 234 233 232 218 200 189 189 190 188 181 180 182 183 181 174 168 170 171 170 171 173 172 169
304 347 325 302 300 304 293 148 101 65 18 334 293 265 296 322 354 71 101 104 106 106 99 90 71 56 50 40 32 21 14 14 10 6 3 357 353 350 347 345 345 344 342 341 339 338 339 340 340 338 335 333 331 330 328 327 327 325 323 323 323 322 319 316 312 307 302 291 272 258 254 249 242 237 232 232 233 225 206 193 189 188 188 184 181 184 185 184 179 171 170 172 174 173 173 175 172
307 317 312 299 298 287 280 277 92 66 358 312 289 288 304 323 359 89 97 100 108 103 98 90 66 55 46 35 28 18 11 11 7 0 356 351 348 346 342 340 340 339 338 338 336 333 335 336 336 335 334 333 329 326 325 323 324 323 322 323 323 322 320 320 318 311 305 302 288 265 254 249 241 235 229 228 231 228 213 198 191 187 187 184 180 183 182 180 180 177 172 171 174 176 175 175 172
301 298 288 284 290 281 280 306 79 58 335 289 316 313 309 319 344 106 101 102 107 104 102 84 63 61 42 32 25 15 8 7 1 354 352 349 346 345 342 340 338 337 337 336 335 334 333 333 331 331 331 330 328 325 323 321 322 322 321 323 323 321 321 320 318 314 307 304 300 285 268 253 240 236 231 227 228 228 219 203 189 186 184 182 180 180 177 177 180 179 176 174 173 174 177 175 169
290 284 278 281 288 289 301 327 91 67 346 286 314 314 308 314 1 116 111 109 107 104 100 77 67 61 36 28 19 10 5 2 356 351 350 347 346 347 344 341 339 338 339 337 335 335 333 330 326 325 326 326 325 323 321 318 319 320 319 321 320 319 319 318 316 315 311 306 303 298 288 268 247 239 234 228 225 224 219 204 189 186 184 181 181 180 179 179 180 181 179 176 173 171 173 173 168
284 280 286 293 292 307 324 334 102 58 343 299 321 318 307 311 114 123 118 108 101 96 90 74 61 47 31 22 13 7 2 358 353 349 349 349 348 347 344 342 340 338 338 336 334 333 331 328 325 322 321 319 318 317 316 313 313 314 314 313 314 315 315 314 312 313 313 310 305 302 300 287 259 244 237 228 223 220 215 203 191 189 186 183 182 180 181 180 180 181 177 173 175 173 171 171 168
284 284 292 294 316 338 331 105 73 350 314 308 339 320 311 31 123 128 118 106 96 92 85 75 56 37 24 17 11 3 359 357 354 350 349 349 346 343 341 339 337 336 334 332 332 330 328 326 323 320 317 313 311 311 310 309 308 308 307 305 307 310 310 309 307 311 316 315 312 307 306 304 284 261 244 230 222 219 215 205 196 193 191 185 180 177 180 182 180 180 177 173 172 172 171 172 172
281 282 291 294 339 352 315 73 345 325 310 327 322 306 321 110 126 123 116 112 105 105 98 91 65 36 23 15 11 1 359 356 350 349 347 345 342 340 338 335 334 333 330 329 329 328 326 324 321 319 316 311 306 305 305 306 305 304 302 301 303 305 305 306 304 308 319 320 319 314 310 310 305 286 259 235 224 218 215 208 199 195 195 190 182 177 180 183 181 181 180 175 171 167 169 174 177
290 275 291 306 340 334 305 313 321 313 141 64 341 310 298 147 156 140 128 125 113 112 105 96 67 40 27 13 10 2 358 352 346 346 344 343 341 339 336 334 333 330 328 328 327 326 324 321 318 315 312 308 304 302 302 303 303 301 301 300 301 305 308 309 309 312 320 324 322 319 314 310 309 303 282 250 229 219 214 208 200 196 196 193 186 180 180 182 182 182 181 178 174 172 170 172 178
299 40 25 341 334 316 310 318 325 315 244 67 30 328 290 183 179 160 150 147 125 115 94 72 35 28 20 8 6 358 352 350 345 345 345 344 341 337 333 332 332 330 328 326 322 320 318 316 314 311 308 305 302 300 299 299 299 298 299 299 299 304 307 309 313 314 315 320 319 317 316 314 309 306 300 274 240 222 216 209 202 200 199 193 187 184 181 181 183 184 182 181 181 178 171 168 179
303 39 14 342 321 308 313 319 327 316 294 342 23 295 283 267 211 169 160 160 134 113 79 50 25 18 11 3 358 352 352 350 346 347 346 342 338 335 332 331 331 327 324 322 318 316 315 313 311 308 305 301 300 298 296 296 295 294 295 295 294 295 298 300 306 307 307 308 310 315 317 318 314 306 305 297 261 230 220 216 208 202 199 193 187 186 185 184 184 185 184 183 183 180 174 172 180
311 21 352 333 321 307 309 310 302 299 303 304 269 235 258 280 231 160 160 165 145 103 55 36 19 10 3 0 356 352 352 349 348 347 342 337 335 333 330 329 328 326 322 319 316 314 312 310 308 306 303 300 298 296 294 293 293 292 291 291 290 287 288 294 299 299 301 301 302 309 315 319 319 312 307 305 286 249 224 218 213 202 198 195 188 185 186 185 186 187 187 186 184 182 181 180 180
333 9 336 306 300 288 288 290 291 304 307 292 257 207 237 274 183 149 175 193 180 45 33 21 9 5 0 357 353 351 351 348 344 339 334 331 330 329 327 325 325 325 323 319 316 314 311 308 305 303 302 300 298 296 294 291 290 289 288 287 287 285 284 289 292 294 296 297 298 302 310 318 321 319 313 307 298 275 235 216 212 203 197 195 190 187 187 186 186 187 187 186 184 184 186 186 183
326 333 300 278 266 260 266 275 296 309 289 275 254 198 225 278 199 164 197 215 251 4 16 10 3 0 357 354 352 350 348 344 338 332 328 326 325 324 323 321 321 321 320 318 315 312 310 308 307 303 300 300 299 296 294 291 290 288 286 284 284 284 284 284 286 289 291 293 295 298 305 314 321 322 318 312 304 293 257 222 212 209 202 196 192 190 189 186 186 187 187 186 186 185 187 189 189
307 299 288 290 276 268 270 270 296 299 273 271 222 187 240 276 246 168 172 165 57 11 359 359 356 352 352 353 351 347 342 337 333 329 325 323 322 322 320 319 318 317 318 317 315 312 308 307 308 306 301 300 300 298 295 293 290 287 285 283 282 282 283 281 280 282 287 290 291 295 300 304 317 322 319 314 306 300 282 234 213 213 207 198 194 193 190 186 186 187 187 187 187 186 186 189 193
284 281 302 313 301 295 281 256 213 248 268 86 111 115 261 251 258 96 125 122 74 33 2 356 351 348 350 350 346 340 334 333 332 328 325 323 321 321 321 320 318 317 317 315 313 312 311 308 307 308 305 303 303 300 296 294 291 287 285 284 281 279 280 280 278 277 280 285 285 289 295 296 311 320 319 316 308 305 301 259 219 212 208 199 195 194 192 189 187 187 188 188 187 187 187 188 192
263 279 325 325 311 312 284 257 241 251 264 119 112 47 276 252 261 150 142 132 93 51 16 1 352 347 347 344 338 333 332 332 331 327 325 324 323 325 324 322 319 318 317 316 312 311 311 310 310 310 307 305 305 303 298 295 293 289 285 283 281 279 279 278 275 273 273 277 278 282 289 288 303 317 318 314 310 309 310 289 238 213 206 202 197 195 194 190 187 187 189 188 187 188 188 188 189
300 307 336 316 310 316 294 291 288 269 256 123 38 343 292 266 254 149 142 128 95 41 16 2 352 346 341 337 332 330 332 332 331 327 323 321 323 324 322 320 318 315 315 315 314 313 313 313 314 312 309 308 308 306 301 297 293 291 286 282 281 278 277 277 273 269 269 271 271 272 279 282 293 309 314 310 311 311 308 303 276 227 206 201 198 195 193 190 187 188 190 189 188 189 189 189 189
55 47 359 280 260 270 279 304 307 294 297 287 285 288 270 288 126 132 129 123 102 22 7 357 348 341 335 332 329 330 331 331 330 324 322 322 323 322 320 319 317 316 315 315 316 317 316 317 319 317 315 316 317 313 308 303 297 292 287 282 282 279 276 276 273 269 268 267 266 267 268 275 288 300 309 308 309 312 306 304 297 258 213 199 197 194 190 188 187 187 189 190 189 190 189 189 189
135 102 126 231 243 251 266 291 291 299 303 286 232 223 255 348 120 136 131 134 108 4 359 349 342 336 333 332 329 330 331 330 329 325 323 322 321 321 320 317 315 315 317 316 317 320 323 325 324 318 317 321 322 318 311 308 303 299 297 289 283 281 278 275 272 270 268 263 261 265 262 267 286 296 305 308 307 311 309 304 304 284 231 201 194 192 190 188 187 187 189 190 190 189 189 189 189
159 163 208 123 64 313 268 281 281 271 286 268 198 240 263 160 151 160 152 144 356 355 352 343 337 334 334 332 330 330 330 329 327 323 321 319 319 320 319 317 316 316 318 319 320 324 327 325 319 314 315 318 320 318 313 312 312 312 312 306 293 283 278 275 272 270 269 264 257 259 262 262 278 292 300 306 306 309 312 307 305 296 251 209 193 191 192 190 189 189 189 190 190 189 188 189 188
191 196 171 119 83 85 230 271 286 253 272 264 227 257 267 268 243 171 167 315 346 345 344 338 333 334 333 330 329 329 328 327 325 321 319 320 321 321 320 320 321 321 322 322 322 325 324 320 316 315 316 315 317 318 315 317 319 317 314 311 305 295 282 273 272 272 269 265 256 253 259 257 268 288 296 303 307 309 312 310 306 301 271 219 195 192 194 191 190 191 190 190 190 188 187 188 189
47 134 137 149 263 228 186 217 273 267 274 279 269 270 262 259 254 153 177 329 345 338 339 335 331 334 332 330 329 328 329 329 327 325 324 325 325 325 324 324 325 324 323 323 324 324 322 319 318 318 316 313 314 314 312 314 318 315 310 308 309 308 296 277 268 272 272 263 252 250 255 253 262 282 292 298 306 309 312 312 308 304 289 240 201 192 195 192 190 192 190 190 190 187 186 187 188
91 99 157 181 260 251 231 217 249 264 272 285 286 290 276 240 155 117 339 342 342 335 337 332 329 332 331 331 329 328 331 330 326 325 325 328 327 325 324 325 326 325 324 324 325 324 323 321 319 318 316 313 313 312 311 313 314 312 311 309 311 314 309 297 279 271 271 264 251 248 251 252 259 276 289 293 300 307 310 312 310 306 299 265 212 193 193 192 190 191 191 190 189 186 186 186 186
164 192 198 194 192 220 261 248 185 232 261 275 283 287 282 132 109 55 335 343 337 336 336 328 326 330 330 331 329 328 332 329 326 325 325 326 324 323 324 324 324 325 326 325 324 324 324 322 319 319 317 315 314 312 311 313 312 310 311 311 311 311 308 306 300 285 274 266 255 249 250 253 260 272 285 289 294 305 309 310 311 306 302 280 227 196 191 191 189 189 190 190 188 187 187 187 185
199 207 208 211 198 179 227 244 188 164 244 248 264 279 274 158 130 328 332 333 334 336 332 325 324 327 329 330 328 329 329 326 325 325 324 324 323 324 325 324 324 327 328 325 323 325 325 323 319 318 317 314 313 313 312 313 312 308 308 310 311 309 306 305 306 300 289 273 258 255 254 253 258 269 281 285 289 302 307 309 311 306 301 292 252 205 189 190 190 188 188 188 187 188 188 187 186